Theta_e
314 319 320 318 320 323 326 326 326 326 326 325 324 323 322 323 324 325 325 327 328 328 328 327 326 327 324 320 318 316 318 319 321 322 322 320 320 319 319 319 320 321 321 322 323 324 325 326 328 328 329 326 322 319 317 318 318 319 324 327 325 324 324 322 322 317 318 322 315 312 316 321 324 320 317 318 318 319 320 321 323 324 322 323 323 322 322 321
310 314 318 319 319 319 321 325 327 327 326 326 325 324 322 322 323 324 325 326 327 327 327 327 327 327 326 324 321 319 319 319 320 321 322 321 321 321 321 321 321 322 322 321 322 323 324 325 326 327 328 325 322 321 319 318 316 320 324 324 327 328 322 317 318 314 315 317 314 313 314 318 321 317 317 318 318 318 321 322 322 324 323 323 323 323 323 323
309 310 313 317 320 318 317 321 326 327 327 326 326 325 323 322 321 322 324 326 327 328 327 327 326 324 323 323 320 319 319 319 320 320 321 321 321 322 322 322 321 321 322 322 321 322 323 324 326 327 325 322 321 321 321 320 318 317 318 322 329 325 318 316 316 315 315 315 314 313 314 315 317 316 317 317 318 320 322 321 321 323 323 323 324 323 324 324
310 310 311 313 317 319 318 318 321 326 327 327 326 326 324 323 321 321 324 326 326 327 327 325 323 320 319 319 319 320 321 321 321 321 322 321 320 321 321 321 320 321 321 322 323 320 322 324 325 326 325 322 320 321 321 321 319 316 316 322 324 316 317 319 317 316 315 314 313 314 314 314 315 316 316 316 319 321 320 319 320 321 321 322 324 323 324 324
312 311 310 311 313 315 318 318 318 321 325 327 327 326 325 323 321 321 324 326 326 326 326 324 321 320 319 320 321 321 322 323 324 323 323 321 321 321 321 321 321 322 321 322 323 320 321 323 324 325 324 320 319 321 321 319 318 316 316 318 316 313 317 317 315 316 313 313 313 312 314 316 315 315 316 317 319 321 319 318 319 318 319 320 322 323 324 325
311 312 312 311 311 312 316 319 318 317 321 325 327 326 325 324 322 321 323 326 326 325 325 323 321 320 321 321 321 321 322 325 324 324 324 322 321 321 322 322 321 321 320 320 320 320 321 322 324 324 321 320 321 324 321 317 317 318 317 315 315 314 315 316 314 314 313 312 313 312 314 315 315 315 315 316 318 319 318 319 319 318 319 319 321 322 323 324
310 312 313 312 312 311 312 317 319 317 318 321 325 327 326 325 323 321 323 326 325 325 325 323 322 321 320 320 321 322 323 324 323 323 324 322 321 321 322 324 322 321 319 319 319 320 321 322 325 323 320 320 321 321 319 316 315 317 318 314 314 315 314 316 315 314 314 313 313 313 314 314 315 317 315 314 318 319 318 318 318 319 319 319 321 321 321 321
309 310 312 313 313 312 311 315 318 318 317 317 320 324 326 325 323 321 323 326 325 325 325 323 321 320 320 321 322 323 323 323 323 322 323 323 322 321 324 325 323 321 319 319 321 321 321 322 325 322 321 321 319 317 315 316 316 315 316 314 312 314 314 315 315 314 314 313 313 312 313 314 315 315 313 314 318 318 318 317 317 318 319 319 320 320 321 321
308 308 311 313 313 313 313 314 316 318 318 316 317 321 325 326 324 322 322 325 325 325 325 323 320 320 321 322 322 323 322 322 323 322 322 324 324 323 324 324 320 319 317 317 318 320 321 322 323 322 322 320 317 315 312 318 320 314 313 312 311 313 314 315 315 314 313 312 312 312 314 314 314 314 313 315 317 317 317 317 317 318 318 319 320 320 321 320
307 307 308 311 313 313 313 312 313 316 318 317 316 317 322 325 325 323 322 324 325 324 324 322 320 320 321 321 322 322 322 322 322 321 322 324 324 324 325 323 320 318 317 316 317 318 319 321 322 322 322 318 316 315 312 317 319 313 311 311 312 313 314 315 315 315 313 312 311 313 315 313 312 313 315 317 316 316 316 316 316 317 318 319 319 320 320 320
306 306 306 307 310 313 313 312 312 314 316 318 317 315 319 323 325 324 322 324 325 324 324 322 320 320 320 320 321 322 322 323 322 321 322 324 325 325 325 324 322 318 316 316 316 316 317 319 320 321 321 318 316 315 313 314 314 312 311 312 313 313 313 314 315 315 314 312 312 312 313 311 311 312 315 316 316 316 315 316 316 316 317 318 319 319 320 320
306 306 306 306 307 310 313 313 313 313 313 315 317 315 316 320 324 324 322 323 325 324 323 322 320 319 319 321 321 321 322 323 322 322 323 324 324 325 325 324 323 320 315 315 315 315 316 317 318 320 321 319 318 317 316 314 313 313 313 316 317 315 315 314 314 314 312 313 312 311 313 313 312 312 316 315 314 315 315 315 316 316 317 318 319 320 320 320
306 306 306 306 306 307 311 314 314 313 313 314 315 316 315 317 322 324 323 323 324 325 322 321 320 318 320 322 321 320 322 323 323 323 323 323 325 325 326 325 324 322 316 314 315 316 316 316 317 319 320 319 318 319 318 313 312 315 315 317 318 318 318 314 313 313 311 313 312 312 316 318 316 313 315 316 314 314 314 315 315 316 316 317 319 319 320 320
306 306 306 306 306 305 308 313 314 314 314 314 314 316 315 315 319 322 324 323 324 325 322 320 320 319 321 323 323 322 322 323 323 323 323 323 325 325 326 326 324 320 315 315 316 317 316 316 317 318 319 319 317 318 319 316 318 321 317 317 319 320 321 316 311 312 313 313 312 313 315 318 318 314 314 314 313 314 314 314 315 315 316 316 318 319 319 319
306 306 306 306 306 305 305 310 313 314 314 314 314 314 315 315 315 319 324 323 323 325 321 319 321 321 322 323 323 323 322 323 323 323 323 323 324 326 326 326 323 318 315 317 318 317 316 316 317 318 318 317 316 318 322 322 324 324 321 321 321 319 322 318 310 309 314 314 310 313 316 316 315 314 315 314 312 314 313 314 315 314 315 316 317 318 318 318
305 306 306 306 306 306 305 306 311 314 314 314 314 314 315 315 314 315 321 324 323 323 321 320 322 322 323 323 322 323 323 322 323 323 324 323 324 325 326 326 324 321 319 320 320 318 315 316 317 316 315 315 317 321 323 322 321 321 321 325 323 318 319 318 313 309 311 313 311 312 315 317 316 312 312 313 312 313 314 314 314 314 315 315 316 316 316 317
305 305 306 306 306 306 306 305 308 312 313 314 315 315 314 314 313 313 318 323 323 322 321 321 322 323 323 322 322 323 322 322 322 323 323 323 323 324 325 325 324 324 324 323 323 319 315 315 315 315 315 317 319 321 323 323 322 321 320 322 322 319 317 318 320 313 308 312 313 311 313 315 316 312 310 312 312 312 313 314 314 314 315 314 315 316 316 316
305 305 306 306 306 306 306 306 306 309 312 313 314 315 315 313 313 312 314 320 323 322 322 321 322 324 323 321 321 322 322 322 322 323 324 323 323 324 325 325 324 323 322 321 320 317 315 314 314 316 317 318 318 318 323 325 324 323 320 320 319 318 316 316 322 317 309 311 313 312 312 312 313 312 311 312 311 311 312 313 314 314 315 315 315 315 315 315
306 305 306 306 306 306 306 306 306 307 310 312 313 314 315 314 314 313 312 317 324 323 323 322 322 325 324 321 321 322 323 322 322 323 323 323 323 323 323 323 321 319 319 319 317 315 314 314 314 317 317 317 317 317 322 323 323 323 319 318 319 319 316 314 318 317 310 311 312 312 312 311 312 312 312 312 312 311 312 312 312 313 314 315 315 315 315 315
306 306 306 306 306 306 306 307 307 307 308 311 313 314 316 315 314 313 311 315 323 324 323 323 322 323 322 321 321 322 322 323 323 322 323 323 322 320 318 318 317 316 318 318 317 315 315 316 316 317 317 316 316 317 320 321 322 322 320 319 318 319 318 314 315 313 308 310 314 313 313 311 311 312 312 312 311 310 310 310 311 312 313 314 315 315 315 315
305 305 305 306 306 306 307 307 307 307 307 309 312 313 315 315 313 313 312 313 320 324 322 322 322 322 322 322 321 322 322 322 322 321 322 323 321 318 315 315 316 317 318 317 316 315 315 318 318 317 317 316 316 316 317 319 321 322 322 320 318 317 317 314 312 312 309 311 314 314 314 312 311 311 311 311 311 310 309 310 310 311 312 313 314 314 314 314
304 305 305 305 305 306 306 306 307 307 306 308 311 312 314 315 313 312 314 316 319 323 322 322 322 322 322 322 322 322 322 320 320 320 321 320 318 317 315 315 316 316 316 316 316 316 316 319 319 318 317 316 316 316 316 318 319 321 321 320 319 317 315 314 313 313 311 310 313 314 312 311 311 311 311 310 310 311 312 311 312 312 312 313 313 314 314 314
304 304 304 304 304 305 306 306 307 306 307 308 309 311 312 313 313 313 314 317 319 322 322 321 322 321 321 321 321 322 321 320 319 319 319 318 317 317 315 314 315 315 315 316 318 318 318 319 317 315 315 316 317 315 315 317 317 319 319 320 320 317 317 318 314 312 312 310 312 313 311 311 312 311 311 310 310 311 312 312 312 312 312 313 314 314 314 314
303 303 303 303 303 303 304 305 306 306 306 307 308 311 312 312 314 314 314 315 317 320 321 321 321 321 320 320 321 322 321 320 319 319 318 317 316 316 315 314 314 315 315 316 318 318 318 318 315 314 315 316 316 315 315 316 316 316 317 318 318 315 316 317 312 312 314 312 311 311 312 313 313 313 312 311 310 310 311 310 310 311 312 313 313 313 314 314
302 302 302 302 302 302 303 304 305 306 306 306 307 309 311 312 313 314 314 314 315 317 319 321 321 321 320 321 321 321 321 320 319 319 318 317 317 315 314 314 315 315 315 316 317 318 317 315 314 315 316 316 316 315 316 316 317 317 316 316 317 315 316 316 315 315 316 317 314 312 315 317 316 316 314 313 313 311 310 308 308 311 312 312 312 313 313 314
301 301 301 301 302 302 302 303 305 306 306 306 306 307 310 312 312 313 314 314 315 317 319 320 321 321 321 321 321 320 322 321 319 319 318 318 317 316 314 314 313 315 315 314 315 317 315 312 314 316 315 316 316 315 316 317 318 318 316 315 315 316 317 317 317 316 318 320 316 312 315 319 319 317 315 315 315 313 311 309 308 309 311 311 311 313 314 314
300 300 301 301 302 302 302 303 304 306 306 306 306 305 308 310 311 313 314 314 315 317 319 320 321 322 321 321 321 321 323 321 318 318 318 318 317 316 315 313 312 313 314 314 316 315 313 312 314 316 315 316 316 316 315 316 319 319 315 314 317 317 317 318 317 317 318 317 315 313 312 314 315 315 317 316 314 313 312 311 310 308 309 311 312 314 314 315
300 300 301 302 302 303 303 302 304 306 306 306 306 305 306 308 311 313 314 316 317 316 317 319 319 321 321 321 321 321 321 320 318 318 318 318 316 315 315 313 312 313 312 315 318 314 311 314 314 315 316 315 315 317 316 315 318 317 314 315 317 316 317 318 317 317 316 314 315 315 312 313 316 316 317 317 314 313 312 312 311 308 309 312 313 315 316 316
300 301 302 302 302 303 303 302 303 305 305 306 306 306 306 308 311 313 315 317 318 315 317 319 319 320 320 321 321 319 319 320 319 318 318 317 315 314 315 313 312 313 312 314 317 312 310 313 313 314 316 316 316 317 315 316 316 313 313 316 315 316 317 317 317 317 315 313 316 317 314 314 318 318 315 315 314 313 313 313 312 308 309 312 313 315 316 316
300 301 301 302 302 302 302 302 303 303 304 305 306 307 308 309 312 315 316 317 317 316 316 318 319 320 321 322 321 320 319 318 317 316 316 315 313 313 313 313 311 312 312 313 315 312 309 311 312 313 314 314 314 313 313 315 314 311 313 315 315 317 317 316 317 316 314 316 317 318 316 313 317 318 314 313 315 314 313 313 313 309 308 311 313 315 316 316
300 301 301 301 302 302 302 302 303 303 304 305 306 308 310 310 312 316 317 316 317 316 316 318 320 321 322 322 322 321 318 316 315 315 315 314 313 313 313 313 312 313 313 313 314 312 309 311 312 312 311 312 312 310 310 312 312 312 315 316 315 316 316 316 316 314 316 318 316 316 316 313 315 316 313 313 315 315 313 313 316 313 310 312 313 315 316 316
300 301 301 301 301 302 302 303 303 304 304 305 306 309 311 311 313 316 316 315 316 317 316 318 321 322 322 322 322 321 318 316 315 315 315 314 314 315 315 314 312 314 314 313 314 313 312 312 312 310 310 311 312 311 310 311 313 314 315 315 316 317 318 318 316 315 317 317 313 313 315 313 315 316 314 313 314 314 310 309 312 311 310 312 313 314 315 314
300 301 301 301 301 301 302 303 303 303 305 305 306 309 311 311 312 316 316 314 316 317 316 318 321 322 322 323 322 319 318 317 316 316 315 314 314 315 315 313 312 316 316 313 313 315 315 313 310 310 310 310 312 312 311 312 313 313 314 315 317 318 318 319 318 317 320 319 314 312 312 314 316 316 315 314 314 314 309 307 310 310 310 312 312 312 313 313
300 301 301 301 301 301 302 303 303 303 305 306 307 309 310 310 312 315 317 314 313 315 317 318 321 322 322 322 321 319 319 318 316 316 315 315 315 315 315 313 313 316 316 313 313 315 317 315 312 311 311 310 312 312 312 313 312 312 314 315 316 318 320 320 319 318 319 318 312 310 313 318 320 318 314 310 311 312 310 310 311 311 312 312 311 312 312 313
300 300 300 301 301 301 302 302 302 303 305 307 308 309 310 310 312 315 316 313 310 313 318 319 320 323 323 322 320 319 319 318 317 316 316 315 315 315 314 313 313 314 314 314 314 314 316 316 312 310 309 310 312 311 311 313 312 312 315 315 315 319 322 321 319 318 319 317 313 311 316 320 320 317 311 308 310 310 309 309 309 309 310 311 311 312 312 313
300 300 300 300 300 301 302 302 302 303 305 308 309 309 310 310 312 314 314 313 310 311 317 321 322 323 323 321 320 319 318 317 317 317 316 316 316 315 314 314 313 312 314 316 315 314 316 315 311 310 309 309 311 311 310 312 313 313 314 314 315 317 319 319 315 313 315 317 316 314 316 318 318 316 313 313 314 312 310 309 307 308 310 309 310 312 313 313
300 300 300 300 301 301 302 302 303 304 305 307 308 309 310 310 313 314 313 314 312 311 316 321 322 322 322 320 319 319 318 317 318 318 317 317 316 315 314 314 313 312 313 315 315 315 316 314 311 311 311 309 308 310 309 310 312 313 313 314 314 315 318 319 316 312 312 316 318 316 315 316 317 317 316 316 314 314 314 312 308 308 308 308 311 313 313 313
299 299 299 300 301 302 302 302 303 304 306 307 309 310 309 309 312 313 313 313 313 313 316 319 321 321 320 320 319 317 318 319 318 318 318 318 317 315 314 313 313 312 311 313 316 316 316 315 311 311 313 310 308 310 311 309 309 310 312 314 315 316 317 317 318 316 314 314 317 318 315 313 315 316 315 314 315 316 314 313 311 310 308 309 311 313 313 314
299 299 299 300 302 302 302 303 304 305 306 308 309 309 308 309 312 312 312 313 314 315 316 316 319 320 319 319 318 316 318 319 318 318 318 318 318 315 313 313 313 311 310 312 315 315 317 319 314 311 312 312 311 311 312 311 309 309 311 312 314 315 315 317 317 317 317 315 317 320 317 313 314 315 314 314 316 317 314 313 314 312 310 311 313 314 314 314
298 299 300 301 302 302 303 304 305 306 307 308 309 309 308 310 312 312 312 313 314 315 316 315 316 317 318 318 317 317 319 319 318 319 319 318 318 315 313 313 313 311 310 312 316 315 314 318 316 312 311 312 312 311 311 312 311 310 312 312 312 311 314 318 316 315 318 317 317 318 316 318 319 315 313 314 314 315 315 314 314 311 310 312 313 313 314 314
298 298 300 301 302 303 305 306 306 307 307 308 309 308 308 310 312 312 313 314 314 315 315 316 315 316 317 318 317 318 320 318 318 319 319 318 317 315 314 313 312 311 310 312 315 314 314 315 314 313 312 311 312 312 312 313 312 311 312 312 312 312 314 317 315 314 315 316 319 318 313 318 323 314 311 313 314 314 314 313 312 310 310 312 313 312 312 312
297 299 301 301 304 306 307 307 308 308 308 309 309 308 308 311 312 311 312 313 314 314 314 316 316 315 316 318 318 318 319 319 318 318 318 318 317 316 315 312 311 311 311 313 313 312 314 316 314 313 313 313 313 310 308 312 313 312 312 313 314 313 313 315 317 317 314 313 317 316 313 316 317 311 311 314 312 311 312 311 310 310 311 313 312 312 312 312
297 300 302 303 306 308 308 308 309 309 308 309 309 308 309 312 312 311 311 313 314 314 314 315 316 315 315 317 318 319 319 318 319 318 318 318 316 315 313 311 311 311 311 313 312 311 314 315 313 313 314 314 313 310 307 311 314 312 312 314 313 312 313 317 321 320 316 315 315 314 313 313 312 313 311 309 308 309 309 309 308 309 312 312 312 312 312 312
297 301 304 307 309 309 309 310 310 310 309 309 309 308 310 312 312 312 312 313 314 315 315 314 315 316 316 316 317 319 319 319 319 318 317 318 315 312 311 311 311 311 312 313 312 313 315 315 313 313 315 316 316 314 312 312 313 313 314 314 313 314 314 315 316 314 314 317 318 316 314 312 315 319 312 308 310 310 308 307 307 309 311 311 312 312 312 312
299 304 309 311 311 310 310 311 310 309 309 309 308 309 311 312 312 312 313 312 313 315 316 315 315 315 316 315 316 319 319 319 320 318 316 315 312 309 310 311 311 311 312 312 311 314 318 315 313 315 316 316 316 315 315 314 312 314 317 314 313 314 312 313 315 314 313 316 317 315 314 313 316 317 312 311 314 314 310 307 307 309 310 311 312 311 312 311
302 310 313 312 312 311 311 311 310 309 309 309 309 310 311 312 311 311 313 313 313 314 315 315 315 314 314 315 316 318 317 317 318 317 314 312 311 309 310 311 311 310 311 311 311 315 319 315 313 316 315 315 317 316 316 316 313 313 315 313 311 311 311 314 318 315 313 316 315 314 314 313 313 313 314 315 316 316 315 309 306 308 310 311 312 311 311 312
303 310 313 312 313 312 311 311 310 309 309 309 309 310 311 311 311 311 313 313 313 313 314 315 315 314 314 314 316 317 315 314 315 315 313 312 312 311 310 311 311 311 311 312 311 315 319 315 314 317 315 316 320 318 315 316 314 313 313 311 311 312 312 315 315 313 314 316 314 314 314 314 315 316 318 319 318 319 316 309 305 307 309 311 311 311 311 311
304 309 311 312 313 312 311 310 310 309 309 309 309 310 311 311 312 312 313 313 313 314 315 315 315 314 313 314 316 316 313 313 314 313 311 311 312 311 311 311 312 311 311 312 311 313 317 315 314 316 315 318 322 319 316 316 314 313 314 312 312 312 313 314 314 313 315 315 314 317 317 315 315 316 319 320 316 314 312 308 307 308 308 310 311 310 311 311
305 309 310 310 311 311 310 310 309 309 309 309 310 311 311 311 312 313 313 312 312 314 315 315 314 314 313 315 316 315 313 314 314 312 310 311 311 311 312 312 312 311 311 312 312 312 314 316 315 314 314 315 317 316 315 316 315 313 313 313 313 313 313 313 313 313 313 313 315 317 317 315 315 316 318 316 309 307 308 308 308 309 309 310 310 311 311 311
305 309 309 310 311 311 310 309 309 309 309 309 310 310 311 311 311 313 313 312 312 314 314 315 315 314 313 314 316 314 314 315 315 312 311 311 312 312 312 313 312 311 311 312 312 311 314 317 314 313 314 313 312 312 313 314 315 314 313 313 313 313 313 312 312 313 313 313 313 313 314 315 314 313 313 309 306 307 309 308 309 310 310 310 311 311 312 312
305 308 309 310 311 310 310 309 309 309 309 309 309 310 311 311 311 313 313 312 312 313 314 315 315 314 313 314 315 315 313 314 315 312 310 312 312 311 312 313 312 312 312 313 312 312 314 315 313 314 316 313 310 312 312 312 314 314 313 313 312 312 313 312 312 312 312 313 313 312 313 313 313 312 310 308 307 308 307 307 309 310 310 310 311 311 312 312
305 308 309 310 311 310 309 309 309 309 309 310 309 310 311 311 311 313 313 313 312 313 314 314 315 314 314 314 315 315 314 313 314 312 310 310 310 309 310 311 311 311 312 313 314 314 315 315 313 314 316 312 309 311 314 314 314 313 313 313 312 312 312 312 313 313 312 312 312 312 313 313 314 314 313 312 313 310 307 308 311 311 311 311 311 311 312 312
Wind_Speed
28 26 25 29 33 32 35 37 37 37 35 34 32 31 31 31 31 29 27 25 26 27 27 30 31 30 30 31 31 31 30 28 25 23 24 24 23 23 24 27 26 17 9 10 13 14 15 16 18 20 19 14 9 8 4 2 2 2 2 2 2 3 4 5 7 7 4 1 3 8 14 11 6 13 12 6 10 12 10 16 14 16 21 13 8 6 11 23
29 28 25 26 28 30 32 33 36 39 38 36 34 32 31 31 32 31 29 27 27 27 28 30 31 30 30 31 31 30 29 29 29 29 29 27 23 21 18 22 27 22 15 12 13 15 15 15 16 17 15 12 8 8 6 2 2 1 3 2 4 5 4 5 7 8 4 1 2 5 10 11 7 10 14 6 7 11 8 13 15 15 21 19 13 9 12 23
28 28 27 26 24 25 31 31 32 37 37 36 35 33 31 31 32 31 30 29 28 27 27 28 28 29 28 28 28 26 24 23 27 33 35 32 28 25 22 20 22 22 20 17 13 14 16 15 16 15 13 11 7 7 6 3 2 0 2 1 5 5 4 6 8 9 7 3 2 2 7 12 8 8 13 8 4 7 9 14 16 19 23 22 18 13 14 24
26 27 27 28 24 22 26 29 31 34 36 36 37 34 33 32 32 32 31 29 28 27 27 27 26 27 26 25 24 21 19 16 22 32 32 30 30 27 26 25 23 22 23 21 17 15 16 17 16 15 12 9 7 6 4 5 2 1 2 3 4 2 3 7 8 8 7 6 5 3 4 9 10 9 12 10 4 3 14 25 25 26 27 24 22 17 17 25
23 24 26 27 27 24 23 24 29 31 32 35 38 37 34 33 33 32 32 30 29 29 28 28 28 27 26 25 23 21 17 7 12 25 27 26 27 26 25 25 25 25 24 22 19 17 16 18 16 13 10 6 7 5 4 8 5 1 3 6 5 3 2 6 5 4 5 5 5 5 4 5 8 11 16 15 8 9 19 29 31 29 26 24 25 20 20 26
22 21 23 25 26 27 24 22 24 28 29 32 36 39 38 34 34 33 32 32 30 30 31 31 31 30 29 27 23 22 20 6 2 6 19 25 25 25 24 23 24 23 22 22 20 20 19 18 15 13 10 4 7 6 4 10 6 2 5 7 7 5 5 6 5 4 4 3 4 4 4 6 8 9 16 20 19 20 19 20 23 26 25 23 24 23 23 27
22 20 21 23 23 26 27 23 21 24 28 29 31 36 40 37 35 35 33 32 32 32 33 34 34 33 30 26 24 24 25 17 1 5 7 22 26 25 25 23 24 22 20 22 23 23 22 20 16 16 11 3 7 7 5 9 5 3 5 5 6 5 7 9 9 10 9 8 8 6 5 7 10 7 9 19 28 29 22 15 13 19 23 22 23 25 25 26
22 21 20 21 22 24 26 25 22 22 24 28 28 30 38 40 37 36 36 33 33 32 32 34 34 33 31 28 26 23 25 28 18 7 4 19 28 26 26 25 22 22 21 21 22 22 23 22 19 18 10 2 8 9 8 8 2 3 5 5 6 5 7 9 10 12 11 10 11 8 8 10 12 8 6 18 28 29 27 19 12 13 20 23 25 27 26 26
22 22 21 20 21 22 24 25 23 22 21 25 30 28 32 40 40 37 37 35 33 33 33 33 32 31 30 30 27 19 25 32 27 20 10 15 29 29 28 27 24 24 22 20 19 20 21 22 24 19 10 6 10 9 11 8 2 6 6 5 7 7 7 9 10 9 8 8 8 7 10 13 12 8 9 20 25 25 26 22 16 13 18 24 26 27 27 28
22 22 22 21 21 21 22 25 26 23 22 22 26 28 28 35 42 40 38 38 34 33 34 33 33 33 31 32 24 14 22 29 25 25 15 12 27 31 29 28 26 26 23 22 19 17 19 19 22 19 8 9 12 8 10 8 4 6 5 6 7 8 8 7 9 10 7 8 8 9 9 9 8 6 7 17 18 20 23 21 20 17 18 24 27 28 29 29
21 21 21 21 21 22 20 23 26 25 24 21 21 28 28 29 40 44 40 39 37 34 35 36 36 35 33 31 25 14 18 24 23 26 18 12 24 31 31 30 27 26 25 23 19 17 17 14 19 17 5 8 11 5 5 5 4 2 3 5 6 7 9 8 8 11 7 5 8 10 7 4 4 5 10 18 15 14 19 21 23 21 19 23 27 29 30 30
21 21 20 20 21 22 20 20 22 24 26 24 21 25 29 26 33 45 43 40 40 36 35 37 37 37 34 31 32 25 19 21 21 26 22 13 21 31 31 29 26 25 24 22 21 20 17 15 20 17 5 9 10 3 4 6 4 1 2 2 5 5 6 9 9 8 6 3 4 4 5 5 4 6 15 22 17 13 16 20 23 24 22 24 27 30 30 31
20 20 20 19 19 21 22 20 19 21 23 25 24 23 27 28 27 39 45 41 41 38 36 39 38 37 34 28 33 33 24 21 20 24 25 16 20 30 30 29 26 25 23 22 23 22 21 20 20 16 8 10 9 3 5 6 4 1 2 0 3 4 4 7 8 6 5 4 4 6 5 6 4 12 20 20 17 15 16 19 23 24 24 25 28 30 31 32
20 20 20 18 18 19 21 21 19 19 20 21 25 23 25 30 27 31 43 43 41 40 38 38 37 37 35 25 26 34 30 22 20 23 26 21 22 30 29 27 26 25 24 22 20 18 20 21 18 16 9 8 9 6 5 3 2 2 1 0 0 2 4 4 5 8 6 5 7 8 5 7 4 12 19 17 16 16 18 21 23 25 26 27 29 31 33 33
21 20 19 18 17 18 20 23 21 19 19 18 22 24 23 28 30 29 39 44 42 41 39 38 38 36 30 22 21 31 34 26 22 23 26 25 25 30 30 29 29 28 26 23 19 15 16 18 17 15 8 7 10 7 3 2 2 1 2 1 1 4 4 5 1 9 7 4 8 8 5 7 6 13 16 15 16 17 20 22 23 25 27 29 30 32 33 34
22 20 20 19 18 17 17 22 23 20 19 16 18 23 23 25 31 30 34 44 44 40 41 39 41 37 20 15 19 27 35 32 28 24 26 28 25 28 31 30 29 29 26 23 20 18 17 15 14 12 9 8 7 5 3 2 1 1 2 2 1 2 2 4 2 5 6 1 5 7 5 3 4 10 12 13 17 19 21 23 24 27 28 29 31 33 34 34
23 21 20 19 18 17 15 18 22 22 20 17 16 18 21 22 27 30 30 41 45 42 46 43 46 41 16 11 21 29 37 37 32 27 26 29 26 26 31 30 27 26 25 22 20 20 17 14 11 7 6 4 4 5 3 3 2 1 2 3 3 3 4 3 2 3 3 1 3 6 5 5 6 7 5 9 14 18 20 24 25 26 28 30 31 33 34 35
22 22 21 19 19 18 16 17 19 22 21 19 16 14 16 18 23 29 29 36 47 44 41 40 43 29 12 20 31 35 41 39 35 32 30 30 26 26 31 30 27 25 23 17 17 19 16 11 8 4 3 3 4 6 6 6 8 7 7 5 4 5 5 4 2 1 1 2 4 5 6 8 9 12 12 10 10 14 19 23 23 23 26 29 31 34 35 36
22 22 21 20 20 19 18 17 16 19 21 21 18 13 13 15 20 27 31 32 41 35 22 34 43 18 9 32 38 36 42 40 36 34 34 33 29 28 31 30 29 28 23 12 11 18 15 7 4 4 5 7 8 10 9 5 7 8 7 5 4 5 4 2 3 2 2 1 6 7 8 8 8 12 18 19 13 14 18 19 21 22 24 28 31 34 36 37
21 22 22 21 21 20 19 18 16 17 19 20 18 14 11 11 11 16 29 33 37 44 32 44 59 26 9 29 34 32 36 38 37 35 35 35 33 30 27 27 25 21 16 10 10 16 15 7 6 10 9 11 13 12 7 3 4 6 5 5 5 5 4 1 1 3 3 1 5 7 8 9 10 9 17 23 15 12 15 16 21 25 26 29 32 35 37 38
20 21 22 21 21 20 20 18 17 16 18 19 18 16 13 14 11 9 20 29 39 56 41 43 62 33 13 32 39 39 36 29 33 37 34 36 37 29 22 23 17 9 8 9 11 14 14 10 10 11 9 10 12 8 6 5 5 6 5 5 4 5 3 1 3 4 3 1 4 6 8 9 10 9 16 21 11 11 18 18 22 27 27 31 33 36 38 39
21 21 22 22 21 21 21 19 18 16 17 20 20 20 19 21 21 17 15 14 30 50 36 34 53 29 17 36 42 47 39 23 25 37 38 40 39 28 21 19 11 6 8 10 10 9 9 9 8 10 7 7 8 7 7 6 5 4 4 3 3 3 1 3 4 4 1 3 4 6 8 9 10 10 15 19 14 16 24 24 25 28 27 30 32 35 39 40
22 22 22 22 22 21 22 21 19 17 18 21 23 26 25 24 24 22 18 9 15 35 36 32 39 26 26 36 40 48 39 23 26 37 44 44 38 31 25 18 10 11 11 10 10 9 7 8 9 11 10 10 9 8 8 5 5 4 4 4 3 4 3 3 2 4 3 3 3 5 6 7 8 8 11 20 21 21 27 25 26 27 26 28 30 32 36 39
24 23 23 23 23 22 22 21 20 19 21 23 27 31 27 23 23 21 19 11 11 19 34 35 36 32 33 35 42 48 36 28 32 38 45 43 32 27 24 18 13 11 11 13 13 10 4 5 14 12 9 12 9 8 10 6 5 4 5 6 3 5 5 1 1 4 4 2 2 2 7 8 7 8 9 14 16 18 25 24 24 28 28 29 30 30 33 34
26 25 24 24 24 22 21 21 22 22 22 25 31 34 28 23 22 19 14 9 8 10 22 29 30 29 33 34 39 42 30 26 34 42 48 45 35 24 17 17 14 10 13 13 10 7 2 7 18 13 6 11 9 8 11 8 6 4 4 6 6 7 5 2 2 3 3 3 2 3 6 8 5 9 10 8 7 11 17 18 22 30 31 32 33 33 34 32
27 26 25 24 24 22 19 20 25 23 22 29 33 33 31 27 22 20 13 5 6 5 11 21 22 24 33 34 37 37 22 17 32 46 48 44 42 30 18 14 8 10 16 12 6 3 3 9 15 12 10 12 10 9 10 9 6 4 5 9 8 8 6 3 1 2 1 4 3 3 6 8 3 6 9 7 9 12 13 12 18 27 29 31 34 36 37 36
28 27 25 24 23 20 19 22 25 22 23 31 32 31 33 30 23 18 12 4 7 8 10 17 18 25 33 35 44 30 9 16 28 40 47 41 38 32 22 14 7 9 12 8 4 2 5 10 9 10 11 9 9 8 7 11 7 3 7 12 8 7 6 5 3 2 3 3 4 3 3 6 8 6 5 4 8 11 12 13 14 20 26 30 35 38 39 39
28 28 25 24 23 21 23 27 24 23 28 29 28 30 31 29 25 16 9 6 5 9 9 12 14 25 33 39 46 23 14 31 23 26 47 40 30 25 16 15 13 13 14 11 7 2 7 12 11 12 11 7 8 6 8 13 6 4 9 11 8 7 6 4 4 2 1 2 6 5 3 4 9 5 5 4 8 13 13 13 12 16 25 32 36 38 38 39
28 28 27 25 24 22 25 30 29 30 32 25 21 26 26 26 22 10 4 5 4 5 7 14 14 21 30 32 32 19 21 28 13 22 45 33 23 17 9 15 16 13 15 10 5 2 4 14 18 14 9 8 6 6 11 13 5 5 10 8 6 4 3 3 3 2 1 2 7 4 3 4 8 5 6 6 9 15 11 8 10 15 25 33 37 39 38 37
29 28 28 25 25 25 26 31 37 37 32 24 22 22 22 21 14 6 7 4 3 1 4 15 16 19 27 19 12 15 17 11 14 27 31 23 21 14 13 21 15 11 10 4 3 2 1 13 19 10 7 8 7 6 11 13 8 8 8 6 6 3 4 3 0 2 1 5 4 5 6 1 6 5 7 7 7 8 7 6 9 13 20 28 32 35 36 37
28 28 27 26 27 27 27 34 41 39 33 28 24 21 20 14 6 6 9 4 4 2 2 10 16 19 25 18 8 14 14 8 18 23 14 13 15 10 15 17 9 8 7 4 4 2 5 10 9 4 7 11 8 5 7 10 11 10 6 5 5 2 2 2 1 2 3 7 1 4 7 6 7 7 4 6 5 4 7 9 9 12 18 26 27 30 36 37
28 29 28 28 29 28 31 40 41 36 33 31 27 23 16 7 6 7 4 7 5 6 4 5 13 18 23 21 12 14 13 9 16 20 14 13 10 10 13 11 10 10 7 8 6 2 4 4 2 1 9 13 10 5 3 5 7 6 5 6 6 3 1 1 3 2 5 6 1 3 5 5 12 9 3 8 8 6 9 10 13 15 19 24 22 23 27 28
29 29 29 30 31 33 39 42 38 32 30 31 31 22 10 7 9 7 4 4 2 5 8 6 13 22 24 19 13 14 13 10 16 18 16 15 12 11 9 8 13 8 5 11 7 4 3 2 3 4 5 12 13 8 5 5 7 8 7 8 7 5 4 6 5 2 4 5 3 3 3 4 11 7 6 11 12 16 17 17 22 22 23 25 21 18 18 18
29 29 31 33 35 40 45 43 38 33 30 31 28 15 9 10 7 7 9 4 3 1 11 11 14 21 24 17 13 15 10 9 18 18 15 14 11 10 7 9 14 5 6 10 6 8 9 2 7 9 5 13 14 10 9 7 7 9 6 5 4 3 5 6 5 4 3 2 2 2 2 5 4 3 6 11 15 22 22 20 23 25 28 28 24 21 19 19
30 31 33 35 39 46 49 44 40 36 33 33 20 7 9 10 4 6 8 4 1 2 10 16 16 16 17 13 12 15 6 6 18 17 14 15 13 14 13 13 16 9 9 11 4 6 9 4 4 5 7 14 12 9 10 9 6 5 3 3 4 3 4 3 3 5 3 1 2 3 3 4 3 6 9 7 10 16 19 20 19 23 27 26 26 27 24 22
32 34 36 39 45 51 49 45 40 40 39 30 12 6 9 7 5 4 4 6 5 3 8 16 17 14 13 8 11 14 3 4 18 13 10 15 13 16 16 13 16 13 11 12 6 4 6 3 0 4 8 14 14 12 12 11 8 3 4 7 5 3 5 4 1 1 4 3 3 2 6 6 3 9 12 8 6 8 12 15 16 22 23 19 24 29 29 29
34 36 37 43 51 53 49 44 41 44 43 23 8 9 8 8 9 5 4 8 10 9 8 11 13 13 12 7 8 14 5 5 16 11 8 11 9 13 14 10 15 18 14 11 5 4 6 2 1 3 6 8 11 15 14 10 8 5 7 7 2 0 1 3 1 1 2 4 3 2 8 6 2 6 7 6 9 9 10 9 11 18 18 16 22 27 27 28
36 37 39 49 55 54 49 43 43 48 38 15 10 15 11 12 11 7 6 10 13 12 7 6 8 10 13 10 8 13 11 8 12 10 10 10 7 14 17 12 15 19 14 8 3 3 6 4 3 1 4 3 3 10 10 6 3 4 6 7 5 2 3 2 2 2 2 3 4 3 5 5 7 7 3 3 9 11 13 11 8 11 13 17 23 24 23 23
37 32 37 53 58 53 47 42 48 48 27 8 11 14 11 12 9 11 17 12 10 13 8 5 5 3 8 13 12 14 15 13 13 10 10 9 5 14 21 14 14 19 15 9 5 4 6 6 1 1 2 4 3 6 9 7 2 1 4 7 4 1 2 4 3 3 3 3 3 3 4 4 7 7 5 7 9 9 11 11 7 9 14 20 22 21 19 19
34 20 32 58 57 48 46 47 48 36 14 8 13 12 11 12 8 15 29 22 9 9 10 8 6 3 7 11 13 14 14 14 15 11 10 11 6 11 20 14 12 20 16 7 6 5 3 4 5 1 0 4 5 6 9 11 8 4 5 8 6 2 2 2 2 2 3 4 3 2 5 6 5 5 9 11 11 10 12 10 7 11 17 20 19 17 16 16
30 12 32 61 49 42 50 44 29 16 7 11 16 13 14 13 8 14 28 30 16 5 7 11 9 5 6 10 12 12 11 12 14 9 7 11 8 6 17 19 14 19 14 5 6 7 2 4 7 4 3 5 3 3 4 8 10 9 6 6 8 5 3 2 4 2 2 2 4 2 5 9 5 5 8 10 11 11 14 13 9 13 18 16 12 11 12 13
22 12 39 58 41 46 51 26 10 11 11 14 15 14 15 13 11 13 19 25 19 6 2 8 10 6 4 8 12 13 12 11 13 10 6 13 14 8 18 26 23 23 17 7 5 4 3 5 6 5 4 4 1 1 1 4 8 7 5 6 7 7 6 6 6 3 1 2 2 3 4 8 5 5 8 8 9 13 19 17 12 15 19 16 12 9 7 6
19 24 48 51 43 60 47 12 9 15 10 14 18 18 19 13 12 15 15 16 15 10 6 5 8 7 5 6 8 12 13 11 14 15 8 11 13 7 18 30 28 23 16 8 6 5 4 5 6 5 1 2 3 2 2 2 3 6 8 6 6 7 7 5 4 4 3 4 3 1 6 6 3 3 5 7 9 12 17 14 9 14 19 17 13 8 4 2
29 35 42 42 55 68 36 6 13 14 9 18 20 20 21 14 11 17 16 13 10 9 10 7 7 6 3 4 7 13 14 9 11 14 7 7 8 9 25 37 31 21 14 11 11 9 5 5 6 8 4 3 3 1 1 3 4 6 5 4 5 6 7 4 2 4 2 6 8 4 8 4 2 5 4 7 9 10 14 13 8 12 16 16 12 6 4 3
28 27 30 46 71 69 32 14 20 14 14 23 19 19 20 10 11 21 21 15 12 9 9 9 11 9 5 4 7 12 12 5 7 10 4 4 3 5 24 38 33 22 13 12 14 9 5 5 8 10 10 9 9 8 7 6 5 2 3 8 9 10 12 7 3 3 6 7 10 8 9 1 3 4 4 7 7 8 13 13 10 14 16 15 11 7 6 5
15 12 16 31 53 53 32 26 25 16 18 22 16 19 21 10 8 18 22 19 16 14 10 8 11 11 9 9 9 12 8 2 2 9 6 7 3 1 20 35 30 21 15 18 21 11 4 3 6 9 12 12 10 6 5 8 9 7 7 11 11 10 12 9 5 6 9 5 7 16 13 3 2 2 4 8 7 8 11 10 11 16 17 16 13 9 7 7
13 9 9 14 21 20 16 19 19 14 18 20 14 14 20 17 10 14 21 18 17 19 11 7 12 12 11 15 12 10 6 4 4 10 6 6 4 3 17 26 22 21 20 20 22 12 4 5 9 10 12 8 5 6 8 11 11 10 9 11 11 11 12 10 10 16 8 7 10 18 12 10 8 5 6 8 7 7 9 10 13 13 11 13 14 11 10 9
13 9 17 26 19 11 12 15 15 17 20 20 14 14 20 22 16 15 17 12 15 20 12 7 14 15 15 19 14 9 7 3 6 10 5 5 6 7 12 13 13 22 21 14 16 11 3 7 11 10 11 7 6 9 12 13 11 10 12 13 13 14 16 16 22 25 13 9 14 8 10 14 11 6 8 9 8 10 10 13 15 11 8 11 12 12 13 11
10 5 14 23 16 14 21 22 20 21 22 20 14 14 21 23 19 17 12 8 13 19 15 10 14 18 18 17 12 10 11 9 9 10 8 10 11 10 11 8 9 18 17 10 11 8 4 6 8 9 10 5 4 7 10 11 11 12 14 17 16 17 19 20 27 27 17 18 17 5 7 10 8 7 10 7 6 9 11 14 16 13 10 8 10 12 12 10
9 2 8 10 6 13 21 22 22 21 19 19 14 12 18 22 21 17 12 12 14 16 17 17 18 21 20 18 15 12 15 15 16 17 16 16 15 12 12 12 11 15 15 10 8 7 6 6 6 7 6 2 2 2 4 7 11 12 13 15 17 18 19 23 28 22 16 21 20 4 2 8 5 6 8 6 5 7 9 14 15 14 12 9 11 13 11 9
14 6 9 10 8 14 17 14 18 18 14 16 14 12 16 20 22 16 11 15 18 17 19 20 20 20 20 22 21 18 18 18 17 21 23 22 19 13 8 10 14 17 16 11 7 6 6 4 4 7 6 3 1 4 5 6 7 7 9 12 16 18 21 24 21 13 13 19 15 8 10 9 5 5 6 5 6 7 9 13 14 14 13 13 15 15 12 10
13 6 9 12 10 15 17 14 16 16 13 14 15 14 15 18 21 18 11 12 16 22 26 26 24 20 16 20 26 29 33 31 24 22 21 17 15 12 10 12 17 18 15 9 4 4 6 5 4 7 7 2 2 6 8 7 6 3 9 16 22 23 22 17 9 10 16 15 11 11 11 5 8 8 9 6 5 7 11 15 19 21 18 17 18 16 15 15
Wind_Direction
243 243 242 238 231 220 212 214 219 219 216 216 216 216 216 216 216 216 217 214 212 212 209 208 209 209 210 213 215 215 215 213 209 203 205 211 215 221 226 226 222 213 214 236 240 239 233 232 236 231 226 224 218 205 201 302 265 195 122 114 196 193 198 186 184 191 171 291 256 199 189 181 191 198 198 206 210 213 210 207 210 212 214 222 226 230 199 190
241 242 243 242 241 235 224 212 210 216 216 215 215 214 215 216 217 216 216 216 213 211 211 211 209 209 209 212 216 218 221 222 221 220 217 215 212 213 219 224 226 224 220 227 236 237 231 221 224 224 214 205 209 209 211 295 350 161 111 118 219 200 207 197 193 200 185 351 269 209 202 201 205 187 187 197 207 200 200 212 216 221 219 219 224 229 204 193
238 240 241 242 245 244 237 224 209 209 212 215 215 213 215 216 216 215 214 216 215 211 211 211 207 206 207 210 215 217 220 223 227 230 225 222 223 223 225 228 231 235 231 228 228 230 229 219 220 219 190 175 198 204 213 258 337 338 131 177 245 220 236 238 220 217 218 276 318 259 216 214 218 184 184 199 194 186 205 213 213 221 220 216 221 225 205 197
237 238 239 241 245 246 243 238 224 210 205 211 217 215 213 214 214 214 214 216 216 212 210 209 204 200 202 204 207 205 204 213 230 236 230 223 226 230 233 235 237 237 230 227 224 218 224 221 219 212 184 167 192 200 212 218 218 317 155 194 238 187 244 261 246 241 246 261 270 246 212 225 223 194 190 188 167 219 227 221 219 224 221 213 216 220 206 199
238 238 237 239 243 246 248 247 238 224 208 203 213 219 213 210 213 212 211 214 214 211 209 206 200 196 196 196 196 196 191 200 245 242 237 225 222 227 230 228 228 227 220 220 217 204 209 214 208 190 172 159 172 181 210 194 176 248 238 240 242 168 225 275 277 260 255 251 242 208 186 226 212 202 204 190 188 227 230 230 229 229 227 219 217 214 206 202
242 239 235 238 240 242 246 247 245 241 224 203 203 215 215 211 212 212 210 212 213 210 207 204 199 194 193 196 202 203 195 190 22 234 228 220 217 219 220 215 210 213 210 210 207 201 203 204 201 180 156 140 172 169 174 180 171 210 245 260 251 225 231 275 314 319 298 251 231 212 225 225 197 213 216 203 216 229 233 242 238 233 230 224 221 215 208 205
243 240 236 236 236 238 241 245 247 247 239 220 204 206 213 213 210 212 211 211 212 210 207 204 202 200 200 203 208 205 203 209 164 42 207 207 212 213 212 209 204 207 206 205 205 206 209 202 197 179 157 123 185 178 150 169 171 200 233 268 261 256 250 267 296 300 294 266 262 267 255 233 209 222 219 214 230 234 235 251 254 240 229 221 220 219 217 215
241 242 237 235 235 235 236 239 242 246 246 237 223 206 207 213 211 210 210 211 213 211 208 204 202 202 202 201 199 200 211 215 217 267 258 197 205 208 207 206 204 206 203 207 209 204 204 199 191 177 169 155 177 174 148 154 165 208 232 278 271 281 262 268 288 287 289 271 265 255 235 244 231 222 227 232 240 237 234 243 257 247 227 219 219 220 221 220
239 242 238 236 235 233 235 236 236 243 246 242 237 219 204 209 211 209 209 211 212 212 208 203 200 197 196 197 196 204 222 218 215 234 250 197 199 202 204 202 198 200 197 200 204 202 197 192 188 180 182 172 157 163 160 164 203 198 219 274 270 280 274 276 280 279 299 278 251 224 236 254 239 224 253 250 248 242 236 239 244 243 227 220 220 221 222 222
238 240 240 238 235 235 235 234 235 240 244 245 243 231 213 209 211 209 208 209 211 213 208 204 200 195 196 199 198 213 226 221 218 223 234 208 197 196 202 203 198 197 195 193 191 196 196 193 191 183 179 167 155 159 170 177 174 176 228 265 264 272 272 275 268 264 290 283 241 214 245 261 219 192 254 258 253 246 238 235 236 235 230 224 222 221 222 224
239 239 241 239 236 237 234 233 236 237 242 245 246 239 227 215 211 209 207 207 209 211 208 206 202 199 202 202 202 214 221 219 218 217 221 219 201 197 199 200 196 195 195 195 188 190 199 202 192 180 167 173 162 153 178 180 155 145 281 259 266 274 262 252 254 263 266 276 243 220 252 276 181 175 249 258 256 249 237 233 233 230 229 227 223 221 221 224
240 240 242 242 239 237 233 232 232 235 241 243 246 243 233 226 214 208 208 206 207 210 209 206 205 205 204 205 211 214 214 217 216 213 214 216 207 201 201 199 195 197 196 193 187 188 202 205 192 185 174 167 155 132 202 177 146 24 360 244 289 322 279 236 229 246 221 238 234 199 274 273 184 204 248 258 252 244 236 229 231 228 227 225 223 222 221 224
239 240 242 244 242 239 234 231 229 232 237 238 241 245 239 234 221 208 207 208 207 208 208 205 205 206 202 206 216 213 212 217 214 211 209 207 204 200 201 200 198 200 198 196 192 192 207 212 202 195 177 157 149 128 168 153 127 40 47 104 306 336 298 227 203 208 202 237 175 145 266 263 220 231 242 254 246 233 229 228 230 227 225 224 222 223 223 225
237 239 243 244 244 242 237 232 229 228 233 237 235 243 244 237 232 214 206 208 207 206 208 204 202 204 204 209 216 211 212 214 208 207 204 198 196 196 198 199 196 194 194 200 199 195 205 209 202 194 181 157 149 127 116 100 86 104 110 18 231 226 278 268 195 181 191 242 177 152 250 262 268 250 243 247 240 231 227 230 232 227 226 225 224 225 226 227
235 239 241 243 244 240 239 234 230 227 230 236 233 239 245 238 238 225 209 209 207 205 205 202 200 199 201 211 213 208 210 210 204 204 202 197 192 192 193 194 192 191 192 199 198 192 192 191 187 181 162 145 146 126 88 55 37 82 191 227 194 209 270 319 233 182 196 237 178 167 249 264 267 259 253 247 234 229 231 233 233 231 229 227 227 228 230 231
234 239 240 243 245 240 239 235 232 229 224 229 233 236 244 241 236 231 216 208 207 204 198 196 198 196 198 210 205 202 205 208 206 202 202 201 197 192 190 190 191 192 196 200 199 193 186 176 173 167 142 138 148 123 97 115 46 353 213 214 216 201 255 316 318 215 221 238 187 209 254 268 265 255 245 237 229 224 229 234 233 233 233 230 230 230 232 234
233 237 240 244 246 243 239 235 234 230 224 225 230 235 244 245 239 238 227 208 205 202 197 194 194 197 206 198 190 195 199 204 205 199 197 199 201 195 189 185 184 190 192 193 194 189 183 172 164 163 148 146 157 136 133 180 190 193 187 213 220 187 194 224 306 271 235 280 240 234 246 245 277 282 224 212 226 223 227 236 237 236 235 232 233 232 233 235
233 235 239 242 244 246 239 235 236 229 223 224 229 238 241 244 240 240 239 214 198 195 199 194 188 193 209 194 190 193 197 199 198 194 189 191 197 196 190 184 178 178 175 175 183 177 171 168 158 156 165 168 158 162 191 202 197 196 183 195 219 206 204 203 245 288 131 303 271 240 252 253 273 286 264 242 229 226 235 242 243 244 241 236 235 235 235 236
235 235 238 242 242 245 241 233 234 229 223 222 227 237 243 250 245 241 246 223 189 183 193 183 182 190 206 195 192 189 194 195 189 188 185 183 186 185 183 181 172 164 158 155 176 173 161 144 159 190 189 183 182 189 202 204 197 193 180 187 201 209 219 196 243 283 85 276 264 246 255 252 249 263 263 258 243 234 247 249 245 247 246 241 238 238 238 238
236 236 238 242 242 245 244 235 232 227 222 223 224 228 237 235 239 247 245 234 199 188 191 183 184 190 165 173 176 176 181 186 183 180 182 181 175 166 161 161 156 155 159 154 167 173 165 159 195 201 193 188 193 195 185 143 153 156 160 196 200 211 222 150 243 322 36 272 256 248 256 256 247 248 256 258 249 233 243 246 245 243 242 241 240 240 240 240
240 239 239 242 245 246 246 241 236 227 218 222 223 224 225 199 203 241 230 240 222 200 195 189 187 190 171 165 171 172 164 169 177 174 179 180 169 157 149 152 148 154 166 134 138 160 171 194 205 196 191 188 195 191 155 138 145 149 162 191 206 213 224 212 252 308 28 202 259 262 268 267 255 252 259 259 246 228 236 236 243 244 241 240 240 242 243 244
245 245 245 244 248 248 247 246 241 233 220 222 227 230 234 216 218 239 221 249 240 211 202 194 188 187 177 175 178 174 159 150 166 169 173 172 167 162 159 162 157 148 144 121 124 152 187 214 197 176 171 170 186 179 159 161 158 162 152 157 213 191 206 272 258 302 305 193 263 275 270 265 255 250 256 258 245 240 244 239 244 247 244 243 243 244 245 246
248 248 250 249 252 252 249 248 244 240 226 223 229 229 235 230 225 240 232 266 269 218 205 194 186 174 161 167 172 170 162 157 164 168 171 169 170 169 162 165 164 146 152 157 158 167 200 211 170 160 169 172 183 177 161 157 159 174 151 155 212 147 146 241 246 304 275 209 260 286 287 270 259 257 256 257 250 248 252 249 249 250 247 249 251 251 251 250
251 249 250 251 254 255 253 250 248 244 231 227 229 225 230 234 231 239 234 263 308 227 208 196 185 175 164 162 169 171 167 167 168 169 171 168 166 166 163 162 156 149 171 176 169 174 202 175 156 156 175 175 175 175 169 172 183 200 184 176 172 132 144 178 63 309 303 289 236 266 297 271 239 242 252 259 250 245 252 251 250 249 248 252 254 254 254 253
253 252 252 250 251 256 257 256 251 244 236 233 227 221 225 232 236 237 228 258 299 233 216 200 185 179 169 165 172 172 164 168 175 172 171 171 164 157 161 165 158 163 179 171 164 185 216 161 157 153 166 167 167 185 183 182 185 214 213 170 146 140 136 105 50 358 358 300 234 152 271 268 218 221 234 248 245 242 247 243 243 247 247 247 248 251 253 253
254 256 256 253 252 254 258 257 251 246 240 237 228 221 224 227 234 228 207 250 264 212 203 188 179 180 174 168 169 169 164 172 179 174 171 174 171 159 152 166 175 175 171 163 160 199 192 167 162 157 164 165 175 198 191 174 171 218 190 143 135 141 135 142 130 61 173 253 272 154 238 268 272 234 229 233 245 250 249 240 239 244 246 245 245 249 252 253
254 256 257 258 254 249 250 249 247 245 238 236 229 223 226 225 229 216 186 247 241 178 174 175 172 181 180 169 164 167 163 151 165 174 173 174 174 165 158 167 175 167 160 153 180 195 140 155 163 160 160 168 187 199 187 169 168 226 163 136 136 144 152 177 140 141 224 286 287 208 208 273 275 247 213 218 253 259 253 250 244 242 245 246 246 248 249 251
253 255 257 258 253 247 246 246 247 243 237 238 232 227 229 226 224 209 183 239 202 139 163 173 172 182 176 166 166 160 135 147 153 176 174 172 173 169 170 174 162 156 162 165 185 168 130 159 170 161 162 187 192 168 155 163 172 220 163 144 156 159 160 164 125 182 253 351 266 233 114 268 269 246 186 191 250 255 247 246 247 242 244 246 245 247 247 249
250 253 256 257 256 250 245 245 245 240 238 243 236 231 232 224 220 213 211 232 147 113 163 163 169 175 161 161 169 152 140 155 150 167 172 171 171 168 170 174 154 143 168 178 170 144 169 179 170 159 172 192 172 134 153 166 177 181 156 132 129 124 97 110 127 180 165 276 249 211 130 245 268 242 186 188 234 246 246 245 248 244 243 245 244 245 246 246
251 255 256 258 259 252 247 244 239 236 237 240 237 232 226 217 211 214 226 212 116 126 164 157 165 161 152 158 173 148 145 147 127 152 167 163 159 155 142 154 142 129 170 192 134 120 127 165 164 165 187 169 131 128 164 168 150 133 133 105 92 67 49 75 146 109 170 265 245 157 148 181 284 244 190 199 219 227 233 243 253 250 244 244 243 244 246 246
255 258 257 256 256 253 252 244 234 233 234 236 236 220 204 204 209 229 216 141 98 206 161 161 161 153 160 167 163 152 148 129 135 147 156 146 151 150 137 144 135 128 163 189 163 68 70 143 165 189 173 147 119 123 162 164 148 130 134 129 112 104 50 44 328 89 216 248 230 166 152 136 248 243 187 229 241 204 216 224 236 245 243 243 241 239 244 249
259 259 259 255 252 252 249 242 235 235 235 234 227 201 182 197 224 232 193 114 145 186 144 171 164 157 169 170 163 160 146 137 155 156 155 152 158 167 159 162 158 148 171 185 171 63 90 158 214 160 163 159 142 126 136 161 158 139 145 145 131 134 111 196 220 177 234 241 203 188 150 171 242 248 229 265 279 257 232 222 230 241 245 247 242 236 243 252
263 262 262 255 252 249 242 239 238 238 238 229 215 193 180 229 216 209 199 145 189 166 140 187 182 163 169 172 167 160 148 154 163 159 159 158 158 168 174 173 164 157 170 169 158 131 139 292 223 166 171 172 163 150 155 173 180 176 168 164 158 149 170 202 200 193 249 244 207 171 144 236 262 266 222 229 246 248 242 241 248 255 258 260 259 251 250 254
265 265 264 256 254 247 239 241 239 236 232 214 202 191 200 227 206 190 207 200 327 178 148 173 189 172 171 174 166 159 153 162 163 160 159 157 159 168 167 180 180 157 114 151 169 170 169 235 199 184 173 170 173 174 162 142 170 189 175 164 180 170 179 194 187 194 219 234 230 188 168 211 231 268 225 217 241 253 255 257 258 261 263 265 268 262 253 247
268 268 263 259 255 246 240 241 237 231 220 201 194 205 207 211 197 193 197 154 4 244 157 164 179 181 179 170 162 167 167 166 164 160 162 164 168 171 167 184 188 162 132 158 179 174 181 229 201 165 148 160 169 172 150 127 156 202 156 157 233 217 154 143 182 184 157 170 227 204 231 223 202 272 269 248 260 270 274 275 268 262 261 261 263 262 255 248
272 267 262 260 254 246 241 238 232 227 214 197 194 224 206 209 204 182 175 150 148 168 165 170 174 181 185 168 167 177 182 163 163 158 168 171 173 176 172 178 180 170 161 162 152 161 185 227 87 105 143 166 168 164 162 158 157 166 179 190 220 200 130 109 206 98 99 211 242 197 250 283 319 285 269 242 244 271 277 277 270 264 263 257 257 262 261 257
270 266 263 259 251 246 242 233 226 222 212 199 207 210 201 217 198 145 168 172 144 148 182 186 176 177 178 162 172 176 149 142 164 158 162 167 174 181 174 173 179 181 179 164 156 181 156 120 332 137 158 182 169 162 174 180 151 147 195 188 133 109 136 110 170 17 97 229 274 223 239 261 267 269 268 232 237 257 263 257 257 264 264 254 255 260 262 261
269 270 266 258 248 243 238 228 220 215 208 201 210 204 203 212 188 138 180 175 141 156 196 207 183 176 175 167 164 169 158 158 170 161 158 167 182 177 173 179 184 186 183 150 126 180 132 101 316 213 151 175 138 151 177 202 156 151 186 170 137 191 223 145 167 204 174 226 284 281 263 250 217 229 277 257 242 251 259 255 249 258 258 254 258 261 260 258
271 271 265 256 246 238 233 222 212 208 204 200 202 202 203 204 188 164 174 168 146 165 189 230 212 178 180 170 153 161 169 170 170 162 165 177 182 178 180 182 177 181 182 155 144 177 130 119 203 277 153 158 137 163 189 196 180 102 157 174 180 178 183 177 173 171 164 197 255 308 310 261 222 204 194 226 241 245 258 261 249 246 253 256 259 262 264 262
267 264 259 251 242 235 223 208 203 202 201 205 197 197 199 194 194 181 174 167 163 175 184 212 220 186 183 169 154 165 171 167 170 169 174 177 161 176 186 185 169 174 173 141 134 161 128 125 150 131 133 164 173 200 193 179 176 180 167 179 194 183 144 175 179 150 139 167 205 291 288 264 244 193 186 207 228 240 252 257 243 243 255 258 258 266 275 275
260 256 256 249 240 222 205 195 196 197 190 205 198 196 197 182 178 190 181 174 175 188 186 193 203 198 179 168 164 168 162 161 172 173 174 176 162 169 189 186 167 163 161 121 143 166 148 133 140 140 174 172 184 230 186 178 187 189 185 186 188 185 157 168 222 214 106 161 187 188 268 269 250 195 192 202 212 227 241 250 250 255 265 272 277 286 281 269
254 240 247 245 230 200 191 182 184 186 190 202 193 191 192 177 175 193 192 183 178 174 160 180 191 202 206 185 175 167 161 161 174 180 185 185 183 185 186 180 164 162 167 150 153 161 98 112 125 128 172 176 168 340 213 214 189 176 211 204 175 185 182 177 215 218 122 224 169 116 270 278 261 201 200 209 214 222 232 241 251 262 271 280 290 293 277 252
244 246 248 244 214 187 181 174 181 180 186 192 188 192 191 183 177 180 189 193 184 169 160 170 179 191 232 215 179 168 164 161 178 184 178 183 191 175 167 167 160 164 172 147 143 162 120 116 114 104 101 337 356 22 358 313 155 178 225 204 163 192 186 160 182 168 180 219 148 106 261 265 292 258 234 250 259 248 244 248 254 259 265 272 276 275 254 220
254 254 245 229 200 185 177 173 180 172 171 181 188 195 190 187 179 173 182 197 194 172 167 172 164 166 229 229 197 183 170 163 187 189 169 170 185 156 158 164 163 169 183 172 167 174 154 136 127 119 100 9 358 354 255 237 200 199 207 166 158 169 144 133 147 124 224 206 152 186 244 233 292 299 289 278 284 280 267 262 258 258 266 273 272 257 230 231
265 249 215 193 184 180 178 181 172 163 172 179 188 191 185 188 185 178 177 182 194 183 166 176 169 155 169 199 205 195 181 169 185 182 150 134 155 153 163 167 169 175 180 161 153 150 139 154 155 148 156 175 190 200 201 191 186 192 158 167 184 171 159 169 131 132 238 200 154 208 243 261 331 304 302 281 279 287 276 264 251 253 262 272 273 252 224 226
263 227 190 175 174 174 178 179 169 164 172 175 183 185 182 183 183 186 182 177 188 186 167 169 163 153 169 181 189 196 195 350 141 160 147 143 139 218 171 170 173 173 156 145 150 144 105 166 180 173 179 182 179 181 141 124 151 184 178 174 178 170 171 162 135 205 224 150 183 233 232 206 249 237 259 265 256 264 273 266 249 248 256 266 269 253 223 214
246 221 187 162 164 168 173 173 168 168 169 170 175 179 181 178 167 191 196 186 184 183 173 164 162 161 174 175 178 189 178 32 103 146 141 138 107 99 164 168 170 162 150 152 162 151 93 184 189 190 199 185 130 127 120 125 159 172 153 161 164 158 164 164 199 223 197 128 229 237 210 205 233 235 243 252 246 248 261 266 261 257 255 254 252 238 220 210
245 229 181 167 160 151 162 170 168 165 166 172 174 169 177 181 174 185 197 192 186 185 179 171 174 173 173 173 175 174 157 98 127 145 132 129 117 113 152 168 171 162 155 161 175 159 118 196 191 187 196 179 130 148 143 139 159 157 152 168 167 168 178 187 216 225 195 184 234 215 165 203 222 221 234 238 236 240 252 267 276 282 262 233 228 228 223 214
243 230 181 174 169 158 159 160 159 163 170 175 176 174 178 183 183 181 179 179 194 192 181 171 180 179 175 176 172 161 165 159 152 161 160 150 148 142 149 167 188 176 164 162 183 177 158 189 185 177 182 159 124 165 155 141 152 163 174 177 172 184 194 200 221 226 209 220 234 162 140 219 217 205 226 233 246 256 267 274 279 288 280 237 224 234 228 212
251 218 162 168 171 157 154 155 159 165 172 176 178 179 179 183 186 182 175 178 188 193 185 179 179 176 174 176 175 183 194 184 168 171 165 153 159 168 168 172 178 177 174 172 181 192 194 186 158 144 158 130 67 134 136 136 154 172 188 186 181 190 199 211 225 224 213 231 238 219 277 262 237 223 236 251 278 278 273 270 271 278 275 249 235 238 228 217
267 265 174 165 155 155 154 155 162 165 172 180 178 172 177 186 186 179 183 191 187 184 185 182 176 174 178 181 183 189 195 191 183 178 170 164 167 168 168 173 167 164 171 178 173 180 194 185 120 123 160 217 38 100 95 88 116 159 192 193 192 197 205 217 225 212 210 229 231 237 261 251 207 227 252 261 267 261 260 266 272 272 258 236 231 230 227 232
272 271 190 171 155 159 158 154 166 172 174 178 175 169 175 184 181 175 182 201 198 190 186 180 174 174 178 184 193 199 195 193 192 181 170 156 142 120 108 142 160 163 163 160 144 150 156 140 121 148 168 236 30 114 113 85 85 191 215 200 200 206 212 221 230 211 213 219 210 222 240 201 159 203 234 244 244 241 250 252 254 254 244 227 226 230 241 255